Voltar ao catálogo

FENGYUN 1C DEB

AtivoSSO
NORAD 31275·DEBRIS·🇨🇳 China

Lançado May 10, 1999 de Taiyuan Satellite Launch Center

Loading…

Próximas Passagens (próximas 24 horas)

TLE

AtualizadoSource: Space-Track

Época: Sep 14, 2026, 21:53 UTC

1 31275U 99025BNH 26257.91231880  .00001047  00000-0  67070-3 0  9992
2 31275  98.9193 300.9808 0102386 304.3296  54.8214 14.03052739993586

Acompanhe FENGYUN 1C DEB em tempo real com AllMySat

Download on the App Store